Weather History for Reading, PA

Change the Weather History Date:

Wednesday, March 14, 2012

  Actual Average Record
Temperature  
Mean Temperature 61 °F 40 °F  
Max Temperature 73 °F 50 °F 81 °F (1990)
Min Temperature 49 °F 31 °F 15 °F (1993)
Degree Days  
Heating Degree Days 4 25  
Month to date heating degree days 258 376  
Since 1 July heating degree days 3586 4418  
Cooling Degree Days 0 0  
Month to date cooling degree days 1 0  
Year to date cooling degree days 1 0  
Growing Degree Days 11 (Base 50)    
Moisture  
Dew Point 35 °F    
Average Humidity 43    
Maximum Humidity 66    
Minimum Humidity 20    
Precipitation  
Precipitation 0.00 in 0.11 in 1.68 in (1913)
Month to date precipitation 0.28 1.32  
Year to date precipitation 4.20 6.85  
Sea Level Pressure  
Sea Level Pressure 30.13 in    
Wind  
Wind Speed 5 mph (WNW)    
Max Wind Speed 18 mph    
Max Gust Speed 22 mph    
Visibility 10 miles    
Events      
T = Trace of Precipitation, MM = Missing Value Source: NWS Daily Summary

Daily Weather History Graph

Daily Weather History Graph

Search for Another Location

Airport:

Trip Planner

Search our weather history database for the weather conditions in past years. The results will help you decide how hot, cold, wet, or windy it might be!

Date:

Astronomy

Mar. 14, 2012 Rise Set
Actual Time 7:16 AM EDT 7:10 PM EDT
Civil Twilight 6:49 AM EDT 7:37 PM EDT
Nautical Twilight 6:17 AM EDT 8:08 PM EDT
Astronomical Twilight 5:45 AM EDT 8:40 PM EDT
Moon 1:44 AM EDT (3/14) 11:23 AM EDT (3/14)
Length of Visible Light 12h 48m
Length of Day
11h 53m
Waning Gibbous, 54% of the Moon is Illuminated
Mar 14
Waning Gibbous
Mar 14
Last Quarter
Mar 22
New
Mar 30
First Quarter
Apr 6
Full

Hourly Weather History & Observations

Time (EDT) Temp. Dew Point Humidity Pressure Visibility Wind Dir Wind Speed Gust Speed Precip Events Conditions
12:54 AM 59.0 °F 43.0 °F 55% 30.02 in 10.0 mi Calm Calm - N/A   Clear
1:54 AM 55.9 °F 44.1 °F 64% 30.03 in 10.0 mi Calm Calm - N/A   Clear
2:54 AM 57.0 °F 44.1 °F 62% 30.03 in 10.0 mi Calm Calm - N/A   Clear
3:54 AM 55.9 °F 42.1 °F 60% 30.04 in 10.0 mi WNW 3.5 mph - N/A   Clear
4:54 AM 55.9 °F 42.1 °F 60% 30.06 in 10.0 mi West 4.6 mph - N/A   Clear
5:54 AM 55.9 °F 41.0 °F 57% 30.08 in 10.0 mi WNW 6.9 mph - N/A   Clear
6:54 AM 53.1 °F 37.0 °F 55% 30.11 in 10.0 mi West 3.5 mph - N/A   Clear
7:54 AM 50.0 °F 37.9 °F 63% 30.14 in 10.0 mi West 3.5 mph - N/A   Clear
8:54 AM 59.0 °F 37.0 °F 44% 30.16 in 10.0 mi NW 9.2 mph - N/A   Clear
9:54 AM 63.0 °F 33.1 °F 33% 30.18 in 10.0 mi WNW 6.9 mph - N/A   Clear
10:54 AM 64.9 °F 32.0 °F 29% 30.19 in 10.0 mi West 10.4 mph - N/A   Clear
11:54 AM 66.9 °F 27.0 °F 22% 30.19 in 10.0 mi NW 12.7 mph - N/A   Clear
12:54 PM 68.0 °F 26.1 °F 21% 30.18 in 10.0 mi West 9.2 mph - N/A   Clear
1:54 PM 69.1 °F 26.1 °F 20% 30.17 in 10.0 mi WNW 6.9 mph - N/A   Clear
2:54 PM 71.1 °F 28.0 °F 20% 30.15 in 10.0 mi West 9.2 mph - N/A   Clear
3:54 PM 72.0 °F 30.0 °F 21% 30.15 in 10.0 mi West 9.2 mph 19.6 mph N/A   Clear
4:54 PM 72.0 °F 30.0 °F 21% 30.14 in 10.0 mi NW 9.2 mph - N/A   Clear
5:54 PM 72.0 °F 30.0 °F 21% 30.13 in 10.0 mi West 5.8 mph - N/A   Clear
6:54 PM 69.1 °F 32.0 °F 25% 30.13 in 10.0 mi Calm Calm - N/A   Clear
7:54 PM 66.9 °F 30.9 °F 26% 30.15 in 10.0 mi Calm Calm - N/A   Clear
8:54 PM 62.1 °F 33.1 °F 34% 30.16 in 10.0 mi Calm Calm - N/A   Clear
9:54 PM 59.0 °F 35.1 °F 41% 30.17 in 10.0 mi Calm Calm - N/A   Clear
10:54 PM 57.0 °F 35.1 °F 44% 30.18 in 10.0 mi Calm Calm - N/A   Clear
11:54 PM 52.0 °F 37.0 °F 57% 30.18 in 10.0 mi North 3.5 mph - N/A   Clear